Location: Bidart
(43.4376°N, 1.5913°W)
Time: 15:41:19
(UTC+00:00)

Cosmos 1315 Rocket - Pass Details

Date: 19 May 2025
Orbit: 498 x 525 km, 81.2° (Epoch: 12 June)

Event Time Altitude Azimuth Distance (km) Brightness Sun altitude
Exits shadow 22:30:32 28° 251° (WSW) 1,007 4.1 -23.1°
Maximum altitude 22:31:39 34° 286° (WNW) 888 4.1 -23.2°
Drops below altitude 10° 22:35:13 10° 352° (N) 1,772 6.4 -23.5°
Sets 22:37:31 0° 2° (N) 2,663 7.4 -23.6°
